Location: Poughquag
(41.6090°N, 73.6820°W)
Time: 01:03:31
(UTC-05:00)

Explorer 7 - All Passes

Search period start: 29 November 2023 00:00
Search period end: 09 December 2023 00:00
Orbit: 472 x 641 km, 50.3° (Epoch: 28 November)

Date Brightness Start Highest point End Pass type
(mag) Time Alt. Az. Time Alt. Az. Time Alt. Az.
29 Nov - 01:07:56 10° W 01:10:42 18° SW 01:13:34 10° S night (unlit)
29 Nov - 16:43:00 10° SSW 16:46:19 32° SE 16:49:38 10° ENE daylight
29 Nov - 18:22:37 10° W 18:26:09 43° NNW 18:29:45 10° NE visible
29 Nov - 20:03:47 10° WNW 20:06:45 22° N 20:09:47 10° NE visible
29 Nov - 21:44:06 10° NW 21:47:30 30° NNE 21:51:02 10° E night (unlit)
29 Nov - 23:23:48 10° WNW 23:27:42 75° SW 23:31:49 10° SE night (unlit)
30 Nov - 01:05:29 10° WSW 01:07:10 12° SW 01:08:52 10° SSW night (unlit)
30 Nov - 16:39:17 10° SW 16:42:50 47° SE 16:46:24 10° ENE daylight
30 Nov - 18:19:26 10° W 18:22:50 34° NNW 18:26:17 10° NE visible
30 Nov - 20:00:35 10° NW 20:03:31 21° N 20:06:31 10° NE visible
30 Nov - 21:40:41 10° NW 21:44:12 35° NNE 21:47:53 10° E night (unlit)
30 Nov - 23:20:27 10° WNW 23:24:15 53° SW 23:28:15 10° SE night (unlit)
01 Dec - 16:35:42 10° SW 16:39:22 69° SE 16:43:02 10° ENE daylight
01 Dec - 18:16:16 10° W 18:19:31 29° NNW 18:22:50 10° NE visible
01 Dec - 19:57:18 10° NW 20:00:16 22° N 20:03:18 10° ENE visible
01 Dec - 21:37:12 10° NW 21:40:51 43° NNE 21:44:40 10° E night (unlit)
01 Dec - 23:17:09 10° WNW 23:20:45 37° SW 23:24:32 10° SSE night (unlit)
02 Dec - 14:54:22 10° SSE 14:56:27 14° SE 14:58:29 10° E daylight
02 Dec - 16:32:12 10° WSW 16:35:53 83° NW 16:39:35 10° ENE daylight
02 Dec - 18:13:05 10° WNW 18:16:11 25° NNW 18:19:22 10° NE visible
02 Dec - 19:53:57 10° NW 19:56:58 23° N 20:00:04 10° ENE visible
02 Dec - 21:33:43 10° NW 21:37:28 56° NNE 21:41:21 10° ESE night (unlit)
02 Dec - 23:13:56 10° W 23:17:12 26° SW 23:20:37 10° SSE night (unlit)
03 Dec - 14:49:58 10° S 14:52:49 21° SE 14:55:38 10° E daylight
03 Dec - 16:28:47 10° WSW 16:32:26 61° NNW 16:36:06 10° NE daylight
03 Dec - 18:09:53 10° WNW 18:12:53 23° N 18:15:54 10° NE visible
03 Dec - 19:50:31 10° NW 19:53:39 25° NNE 19:56:51 10° ENE visible
03 Dec - 21:30:12 10° NW 21:34:00 75° NNE 21:37:57 10° ESE night (unlit)
03 Dec - 23:10:52 10° W 23:13:35 18° SW 23:16:23 10° S night (unlit)
04 Dec - 14:45:54 10° SSW 14:49:12 30° SE 14:52:28 10° ENE daylight
04 Dec - 16:25:25 10° W 16:28:59 45° NNW 16:32:33 10° NE daylight
04 Dec - 18:06:37 10° WNW 18:09:32 21° N 18:12:29 10° NE visible
04 Dec - 19:47:00 10° NW 19:50:16 28° NNE 19:53:37 10° ENE visible
04 Dec - 21:26:42 10° WNW 21:30:29 80° SW 21:34:25 10° SE night (unlit)
04 Dec - 23:08:14 10° WSW 23:09:56 12° SW 23:11:39 10° SSW night (unlit)
05 Dec - 14:42:01 10° SSW 14:45:35 43° SE 14:49:06 10° ENE daylight
05 Dec - 16:22:05 10° W 16:25:32 36° NNW 16:28:59 10° NE daylight
05 Dec - 18:03:18 10° NW 18:06:10 21° N 18:09:04 10° NE visible
05 Dec - 19:43:27 10° NW 19:46:51 33° NNE 19:50:21 10° E visible
05 Dec - 21:23:12 10° WNW 21:26:55 56° SW 21:30:46 10° SE night (unlit)
06 Dec - 14:38:15 10° SW 14:41:59 64° SE 14:45:38 10° ENE daylight
06 Dec - 16:18:46 10° W 16:22:05 30° NNW 16:25:23 10° NE daylight
06 Dec - 17:59:55 10° NW 18:02:47 21° N 18:05:41 10° NE visible
06 Dec - 19:39:51 10° NW 19:43:23 40° NNE 19:47:00 10° E visible
06 Dec - 21:19:45 10° WNW 21:23:17 39° SW 21:26:56 10° SSE night (unlit)
07 Dec - 12:57:00 10° SSE 12:58:55 14° SE 13:00:50 10° E daylight
07 Dec - 14:34:36 10° WSW 14:38:22 90° NW 14:42:04 10° ENE daylight
07 Dec - 16:15:27 10° WNW 16:18:37 26° NNW 16:21:47 10° NE daylight
07 Dec - 17:56:26 10° NW 17:59:22 22° N 18:02:21 10° ENE visible
07 Dec - 19:36:14 10° NW 19:39:51 51° NNE 19:43:36 10° ESE visible
07 Dec - 21:16:23 10° WNW 21:19:36 27° SW 21:22:56 10° SSE night (unlit)
08 Dec - 12:52:21 10° S 12:55:10 20° SE 12:57:56 10° E daylight
08 Dec - 14:31:02 10° WSW 14:34:46 66° NNW 14:38:27 10° NE daylight
08 Dec - 16:12:07 10° WNW 16:15:09 23° N 16:18:11 10° NE daylight
08 Dec - 17:52:52 10° NW 17:55:55 24° N 17:59:00 10° ENE visible
08 Dec - 19:32:35 10° NW 19:36:17 69° NNE 19:40:05 10° ESE visible
08 Dec - 21:13:10 10° W 21:15:52 19° SW 21:18:39 10° S night (unlit)
